Location: McFarlands Corners
(41.4117°N, 81.3382°W)
Time: 15:18:56
(UTC+00:00)

Transit 2A - Pass Details

Date: 21 February 2026
Orbit: 590 x 954 km, 66.7° (Epoch: 7 March)

Event Time Altitude Azimuth Distance (km) Brightness Sun altitude
Rises 01:42:51 0° 332° (NNW) 3,563 10.0 -30.1°
Reaches altitude 10° 01:45:33 10° 337° (NNW) 2,577 9.1 -30.6°
Enters shadow 01:49:11 35° 357° (N) 1,372 7.3 -31.2°
